Regional Weather Roundup
Issued by NWS

Home | Current Version | Previous Version | Graphics & Text | Print | Product List | Glossary On
Versions: 1 2 3 4 5 6 7 8 9 10 11 12 13 14 15 16 17 18 19 20 21 22 23 24 25 26 27 28 29 30 31 32 33 34 35 36 37 38 39 40 41 42 43 44 45 46 47 48 49 50
000
ASUS43 KOAX 050602
RWRNE

WEATHER ROUNDUP FOR NEBRASKA
NATIONAL WEATHER SERVICE OMAHA NE
100 AM CDT WED AUG 05 2015

NOTES: SATELLITE DATA IS BEING USED TO AUGMENT CLOUD COVER ABOVE
       12000 FEET.
       "FAIR" INDICATES FEW OR NO CLOUDS BELOW 12,000 FEET WITH NO
       SIGNIFICANT WEATHER AND/OR OBSTRUCTIONS TO VISIBILITY.

  * THESE STATIONS DO NOT REPORT WEATHER SUCH AS RAIN...SNOW OR FOG.

NEZ001>004-019>022-054>056-050700-
NEBRASKA PANHANDLE

CITY           SKY/WX    TMP DP  RH WIND       PRES   REMARKS
SCOTTSBLUFF    FOG       63  62  97 NE3       30.08S VSB 1/4
6HR MIN TEMP:  63; 6HR MAX TEMP:  71;

ALLIANCE       MOCLDY    61  60  97 S5        30.07R
6HR MIN TEMP:  61; 6HR MAX TEMP:  74;

CHADRON        CLOUDY    66  60  81 SW3       30.03S
6HR MIN TEMP:  65; 6HR MAX TEMP:  79;

KIMBALL        CLEAR     57  55  92 SW6       30.12S
SIDNEY         CLEAR     58  56  93 S3        30.11R
6HR MIN TEMP:  58; 6HR MAX TEMP:  74;

$$

NEZ057>060-069>072-079>082-050700-
SOUTHWEST NEBRASKA

CITY           SKY/WX    TMP DP  RH WIND       PRES   REMARKS
NORTH PLATTE   CLOUDY    61  59  93 NW5       30.02S
6HR MIN TEMP:  61; 6HR MAX TEMP:  71;

IMPERIAL       CLEAR     60  59  96 N6        30.05S
6HR MIN TEMP:  60; 6HR MAX TEMP:  74;

LEXINGTON      PTCLDY    64  63  97 SE5       30.01R
MCCOOK         PTCLDY    62  61  96 CALM      30.02S
6HR MIN TEMP:  62; 6HR MAX TEMP:  66;

$$

NEZ005>010-023>029-035>040-094-050700-
NORTH CENTRAL NEBRASKA

CITY           SKY/WX    TMP DP  RH WIND       PRES   REMARKS
AINSWORTH      CLOUDY    66  65  95 CALM      30.01F
BROKEN BOW     MOCLDY    65  62  90 S6        30.00S
6HR MIN TEMP:  65; 6HR MAX TEMP:  73; 6HR PCP: TRACE;

ORD            CLOUDY    64  63  96 S3        29.97F
6HR MIN TEMP:  64; 6HR MAX TEMP:  73;

$$

NEZ041-046>049-061>064-073>077-083>087-050700-
SOUTH CENTRAL NEBRASKA

CITY           SKY/WX    TMP DP  RH WIND       PRES   REMARKS
GRAND ISLAND   CLOUDY    66  65  96 S5        30.00F
6HR MIN TEMP:  65; 6HR MAX TEMP:  68;

AURORA         CLOUDY    66  66 100 CALM      29.99S
HASTINGS       CLOUDY    66  64  93 CALM      29.99F
6HR MIN TEMP:  65; 6HR MAX TEMP:  67; 6HR PCP:  0.25;

KEARNEY *      MOCLDY    63  61  94 E5        30.01R
$$

NEZ011>018-030>034-042>045-050700-
NORTHEAST NEBRASKA

CITY           SKY/WX    TMP DP  RH WIND       PRES   REMARKS
NORFOLK        CLOUDY    68  64  87 E6        29.99S
6HR MIN TEMP:  67; 6HR MAX TEMP:  75;

BLAIR          MOCLDY    67  64  90 NE6       29.98R
COLUMBUS *     CLOUDY    70  63  78 NE3       29.99R
TEKAMAH        CLOUDY    69  64  84 N3        29.99S
6HR MIN TEMP:  68; 6HR MAX TEMP:  77;

$$

NEZ050>053-065>068-078-088>093-050700-
SOUTHEAST NEBRASKA

CITY           SKY/WX    TMP DP  RH WIND       PRES   REMARKS
LINCOLN        CLOUDY    73  69  87 CALM      29.97R
6HR MIN TEMP:  72; 6HR MAX TEMP:  82;

OMAHA EPPLEY   MOCLDY    69  66  90 E6        29.98R
6HR MIN TEMP:  69; 6HR MAX TEMP:  77; 6HR PCP:  0.30;

FALLS CITY     MOCLDY    69  68  96 E7        29.96R
6HR MIN TEMP:  69; 6HR MAX TEMP:  76;

NEBRASKA CITY  MOCLDY    69  68  97 SE7       29.97R
$$

NEZ044-045-051>053-067-050700-
OMAHA AREA

CITY           SKY/WX    TMP DP  RH WIND       PRES   REMARKS
OMAHA EPPLEY   MOCLDY    69  66  90 E6        29.98R
6HR MIN TEMP:  69; 6HR MAX TEMP:  77; 6HR PCP:  0.30;

BLAIR          MOCLDY    67  64  90 NE6       29.98R
OFFUTT AFB     MOCLDY    69  67  93 E7        29.97R
WAHOO          FAIR      69  68  94 NE3       29.97R
$$


USA.gov is the U.S. government's official web portal to all federal, state and local government web resources and services.